Weather History for Vacaville, CA

Change the Weather History Date:

Thursday, March 29, 2012

  Actual Average Record
Temperature  
Mean Temperature 55 °F -  
Max Temperature 62 °F 71 °F 89 °F (1968)
Min Temperature 48 °F 45 °F 33 °F (1972)
Degree Days  
Heating Degree Days 10    
Growing Degree Days 5 (Base 50)    
Moisture  
Dew Point 48 °F    
Average Humidity 76    
Maximum Humidity 90    
Minimum Humidity 58    
Precipitation  
Precipitation 0.00 in - - ()
Sea Level Pressure  
Sea Level Pressure 30.11 in    
Wind  
Wind Speed 6 mph (SSW)    
Max Wind Speed 14 mph    
Max Gust Speed 21 mph    
Visibility 10 miles    
Events      
Averages and records for this station are not official NWS values.
T = Trace of Precipitation, MM = Missing Value Source: NWS Daily Summary

Daily Weather History Graph

Daily Weather History Graph

Search for Another Location

Airport:

Trip Planner

Search our weather history database for the weather conditions in past years. The results will help you decide how hot, cold, wet, or windy it might be!

Date:

Astronomy

Mar. 29, 2012 Rise Set
Actual Time 6:56 AM PDT 7:28 PM PDT
Civil Twilight 6:29 AM PDT 7:55 PM PDT
Nautical Twilight 5:58 AM PDT 8:26 PM PDT
Astronomical Twilight 5:26 AM PDT 8:59 PM PDT
Moon 11:14 AM PDT (3/29) 1:20 AM PDT (3/29)
Length of Visible Light 13h 25m
Length of Day
12h 32m
Waxing Crescent, 40% of the Moon is Illuminated
Mar 29
Waxing Crescent
Mar 30
First Quarter
Apr 6
Full
Apr 13
Last Quarter
Apr 21
New

Hourly Weather History & Observations

Time (PDT) Temp. Dew Point Humidity Pressure Visibility Wind Dir Wind Speed Gust Speed Precip Events Conditions
12:53 AM 52.0 °F 48.0 °F 86% 30.12 in 10.0 mi SSW 4.6 mph - N/A   Clear
1:53 AM 51.1 °F 48.0 °F 89% 30.14 in 10.0 mi SSW 6.9 mph - N/A   Partly Cloudy
2:53 AM 50.0 °F 46.9 °F 89% 30.11 in 10.0 mi SSE 3.5 mph - N/A   Mostly Cloudy
3:53 AM 48.9 °F 46.0 °F 90% 30.11 in 10.0 mi Calm Calm - N/A   Clear
4:53 AM 48.9 °F 44.1 °F 83% 30.12 in 10.0 mi Calm Calm - N/A   Clear
5:53 AM 50.0 °F 43.0 °F 77% 30.13 in 10.0 mi South 3.5 mph - N/A   Mostly Cloudy
6:53 AM 51.1 °F 42.1 °F 71% 30.11 in 10.0 mi SSW 4.6 mph - N/A   Partly Cloudy
7:53 AM 51.1 °F 46.0 °F 83% 30.12 in 10.0 mi SW 9.2 mph - N/A   Clear
8:53 AM 55.0 °F 46.0 °F 72% 30.13 in 10.0 mi SSW 3.5 mph - N/A   Clear
9:53 AM 57.9 °F 48.0 °F 70% 30.13 in 10.0 mi SSW 5.8 mph - N/A   Clear
10:53 AM 59.0 °F 48.9 °F 69% 30.12 in 10.0 mi SW 11.5 mph - N/A   Clear
11:53 AM 61.0 °F 48.9 °F 64% 30.11 in 10.0 mi WSW 13.8 mph 18.4 mph N/A   Clear
12:53 PM 62.1 °F 48.0 °F 60% 30.11 in 10.0 mi SW 13.8 mph 20.7 mph N/A   Clear
1:53 PM 61.0 °F 46.0 °F 58% 30.10 in 10.0 mi SW 8.1 mph 18.4 mph N/A   Clear
2:53 PM 60.1 °F 46.9 °F 62% 30.09 in 10.0 mi SW 6.9 mph - N/A   Scattered Clouds
3:53 PM 59.0 °F 48.9 °F 69% 30.09 in 10.0 mi WSW 5.8 mph - N/A   Scattered Clouds
4:53 PM 60.1 °F 48.9 °F 67% 30.09 in 10.0 mi SW 4.6 mph - N/A   Overcast
5:53 PM 59.0 °F 50.0 °F 72% 30.08 in 10.0 mi South 5.8 mph - N/A   Overcast
6:53 PM 57.9 °F 50.0 °F 75% 30.08 in 10.0 mi SW 4.6 mph - N/A   Overcast
7:53 PM 57.0 °F 50.0 °F 77% 30.08 in 10.0 mi SSW 4.6 mph - N/A   Overcast
8:53 PM 55.9 °F 50.0 °F 80% 30.08 in 10.0 mi SSE 4.6 mph - N/A   Overcast
9:53 PM 55.0 °F 50.0 °F 83% 30.09 in 10.0 mi South 9.2 mph - N/A   Overcast
10:53 PM 54.0 °F 50.0 °F 86% 30.09 in 10.0 mi SSE 9.2 mph - N/A   Overcast
11:53 PM 54.0 °F 50.0 °F 86% 30.10 in 10.0 mi SSE 5.8 mph - N/A   Overcast